Date,TemperatureHighF,TemperatureAvgF,TemperatureLowF,DewpointHighF,DewpointAvgF,DewpointLowF,HumidityHigh,HumidityAvg,HumidityLow,PressureMaxIn,PressureMinIn,WindSpeedMaxMPH,WindSpeedAvgMPH,GustSpeedMaxMPH,PrecipitationSumIn
2013-1-1,45.0,33.5,27.0,20.0,11.9,0.0,73,43,21,0.00,40.00,11,4,22,0.00
2013-1-2,57.0,42.9,35.0,9.0,2.2,-4.0,24,18,12,0.00,40.00,7,3,18,0.00
2013-1-3,53.0,41.0,34.0,12.0,5.3,1.0,27,22,17,0.00,40.00,4,2,13,0.00
2013-1-4,55.0,41.0,33.0,11.0,7.3,4.0,30,25,17,0.00,40.00,5,2,11,0.00
2013-1-5,52.0,39.4,35.0,10.0,6.0,-2.0,34,25,17,0.00,40.00,5,2,13,0.00
2013-1-6,43.0,32.5,28.0,30.0,22.5,-3.0,98,73,18,0.00,40.00,10,3,23,0.01
2013-1-7,50.0,37.0,26.0,29.0,21.3,9.0,98,59,26,0.00,40.00,8,2,24,0.01
2013-1-8,64.0,49.8,39.0,27.0,24.1,22.0,53,38,23,0.00,40.00,3,2,10,0.00
2013-1-9,61.0,48.6,43.0,30.0,26.7,25.0,53,43,29,0.00,40.00,10,2,26,0.00
2013-1-10,39.0,27.8,21.0,34.0,19.7,13.0,91,72,51,0.00,40.00,19,12,44,0.00
2013-1-11,37.0,23.3,19.0,18.0,16.0,14.0,90,75,43,0.00,40.00,8,4,24,0.00
2013-1-12,33.0,23.3,16.0,18.0,12.8,10.0,93,66,39,0.00,40.00,4,1,11,0.00
2013-1-13,39.0,23.9,17.0,13.0,6.6,-5.0,73,50,28,0.00,40.00,4,2,13,0.00
2013-1-14,39.0,24.7,14.0,-2.0,-8.5,-14.0,32,23,14,0.00,40.00,6,3,13,0.00
2013-1-15,48.0,35.3,23.0,13.0,5.4,-4.0,44,29,17,0.00,40.00,5,3,13,0.00
2013-1-16,64.0,46.5,36.0,17.0,7.8,-6.0,42,24,7,0.00,40.00,8,2,19,0.00
2013-1-17,60.0,48.2,42.0,-1.0,-5.7,-10.0,13,10,7,0.00,40.00,6,3,17,0.00
2013-1-18,61.0,47.4,39.0,0.0,-6.2,-13.0,13,10,8,0.00,40.00,5,3,13,0.00
2013-1-19,65.0,50.0,42.0,-4.0,-8.1,-13.0,12,9,6,0.00,40.00,4,2,13,0.00
2013-1-20,64.0,50.6,41.0,-4.0,-8.5,-11.0,11,8,5,0.00,40.00,5,2,13,0.00
2013-1-21,67.0,53.0,45.0,1.0,-6.2,-15.0,14,8,5,0.00,40.00,6,3,14,0.00
2013-1-22,64.0,51.3,44.0,7.0,1.4,-2.0,18,13,8,0.00,40.00,5,3,12,0.00
2013-1-23,56.0,48.1,40.0,38.0,14.6,1.0,88,31,15,0.00,40.00,6,2,12,0.07
2013-1-24,50.0,42.1,39.0,46.0,40.4,33.0,100,94,77,0.00,40.00,5,2,11,0.37
2013-1-25,47.0,42.9,41.0,43.0,41.8,40.0,100,96,86,0.00,40.00,4,2,11,0.05
2013-1-26,50.0,41.8,37.0,45.0,40.0,33.0,100,94,72,0.00,40.00,7,2,24,0.09
2013-1-27,38.0,33.3,28.0,34.0,27.5,22.0,96,80,64,0.00,40.00,14,8,35,0.05
2013-1-28,37.0,28.8,25.0,25.0,23.1,21.0,95,80,60,0.00,40.00,8,3,15,0.02
2013-1-29,43.0,32.9,25.0,30.0,26.8,24.0,97,80,50,0.00,40.00,7,2,13,0.00
2013-1-30,63.0,47.1,38.0,29.0,25.8,23.0,57,45,27,0.00,40.00,5,2,13,0.00
2013-1-31,64.0,52.4,42.0,27.0,23.6,21.0,48,34,21,0.00,40.00,4,2,10,0.00
2013-2-1,64.0,48.6,40.0,29.0,25.6,23.0,56,41,25,0.00,40.00,6,2,14,0.00
2013-2-2,63.0,50.2,43.0,32.0,20.8,16.0,66,32,19,0.00,40.00,6,2,15,0.00
2013-2-3,61.0,47.7,40.0,35.0,31.0,27.0,77,55,28,0.00,40.00,3,1,10,0.00
2013-2-4,63.0,50.4,41.0,27.0,21.4,15.0,58,34,16,0.00,40.00,4,1,8,0.00
2013-2-5,64.0,48.0,39.0,29.0,22.3,16.0,68,38,17,0.00,40.00,10,4,26,0.00
2013-2-6,53.0,41.1,32.0,33.0,29.2,22.0,100,66,36,0.00,40.00,7,2,18,0.00
2013-2-7,61.0,40.2,27.0,28.0,16.5,5.0,95,45,11,0.00,40.00,6,2,16,0.00
2013-2-8,40.0,29.9,25.0,26.0,23.2,20.0,92,77,48,0.00,40.00,14,6,36,0.01
2013-2-9,41.0,28.9,24.0,28.0,18.5,-99.9,96,76,49,0.00,40.00,4,2,15,0.01
2013-2-10,46.0,33.2,22.0,31.0,18.7,11.0,91,60,29,0.00,40.00,10,2,24,0.00
2013-2-11,49.0,35.6,28.0,18.0,6.9,-1.0,59,32,16,0.00,40.00,7,3,19,0.00
2013-2-12,55.0,37.1,27.0,22.0,14.4,10.0,63,42,19,0.00,40.00,4,1,10,0.00
2013-2-13,63.0,44.3,32.0,19.0,13.9,7.0,54,33,13,0.00,40.00,4,1,10,0.00
2013-2-14,61.0,48.0,39.0,22.0,16.0,6.0,41,29,14,0.00,40.00,7,3,18,0.00
2013-2-15,67.0,51.9,44.0,18.0,10.8,5.0,30,20,12,0.00,40.00,10,4,24,0.00
2013-2-16,66.0,50.7,43.0,18.0,4.6,-1.0,34,16,8,0.00,40.00,5,2,10,0.00
2013-2-17,63.0,45.3,34.0,29.0,17.6,9.0,57,35,18,0.00,40.00,5,3,14,0.00
2013-2-18,63.0,45.5,35.0,31.0,21.2,8.0,72,42,16,0.00,40.00,10,3,19,0.00
2013-2-19,38.0,32.7,26.0,33.0,26.8,20.0,98,80,54,0.00,40.00,12,5,30,0.00
2013-2-20,34.0,26.6,22.0,29.0,23.0,18.0,96,87,70,0.00,40.00,9,3,22,0.08
2013-2-21,47.0,31.1,21.0,34.0,19.4,8.0,96,68,22,0.00,40.00,5,2,16,0.03
2013-2-22,55.0,36.5,26.0,32.0,21.1,10.0,95,60,18,0.00,40.00,4,2,12,0.00
2013-2-23,47.0,36.8,29.0,33.0,25.7,15.0,93,66,44,0.00,40.00,18,8,42,0.00
2013-2-24,54.0,37.2,27.0,28.0,1.2,-8.0,86,25,10,0.00,40.00,6,2,15,0.00
2013-2-25,59.0,40.6,30.0,24.0,10.0,-2.0,57,30,14,0.00,40.00,9,3,25,0.00
2013-2-26,58.0,40.5,30.0,23.0,13.2,0.0,72,40,12,0.00,40.00,4,2,12,0.00
2013-2-27,59.0,43.5,32.0,7.0,1.6,-4.0,25,18,10,0.00,40.00,4,2,11,0.00
2013-2-28,66.0,47.4,36.0,19.0,7.9,4.0,39,22,10,0.00,40.00,4,1,11,0.00
2013-3-1,70.0,52.9,40.0,21.0,15.4,8.0,42,24,13,0.00,40.00,6,3,17,0.00
2013-3-2,72.0,55.4,46.0,26.0,17.3,11.0,32,23,12,0.00,40.00,8,3,16,0.00
2013-3-3,59.0,48.3,39.0,36.0,29.1,20.0,75,49,33,0.00,40.00,19,9,41,0.00
2013-3-4,67.0,46.1,35.0,40.0,29.1,16.0,87,57,17,0.00,40.00,9,3,20,0.00
2013-3-5,65.0,50.1,41.0,36.0,23.1,10.0,55,37,16,0.00,40.00,13,4,27,0.00
2013-3-6,50.0,39.6,33.0,33.0,27.8,20.0,79,63,46,0.00,40.00,13,7,36,0.00
2013-3-7,50.0,37.2,31.0,32.0,29.6,26.0,99,76,44,0.00,40.00,8,2,18,0.00
2013-3-8,37.0,32.3,30.0,32.0,29.2,26.0,98,89,77,0.00,40.00,8,3,20,0.23
2013-3-9,50.0,35.4,30.0,38.0,30.4,27.0,99,84,54,0.00,40.00,7,3,18,0.05
2013-3-10,66.0,48.1,32.0,26.0,12.9,-14.0,60,27,10,0.00,40.00,4,2,11,0.00
2013-3-11,70.0,52.8,41.0,24.0,11.2,-3.0,47,21,9,0.00,40.00,5,2,12,0.00
2013-3-12,73.0,58.2,47.0,20.0,11.9,3.0,34,18,8,0.00,40.00,4,2,12,0.00
2013-3-13,80.0,62.6,50.0,21.0,14.4,7.0,22,16,9,0.00,40.00,4,2,15,0.00
2013-3-14,85.0,64.3,54.0,34.0,19.2,11.0,28,19,8,0.00,40.00,6,2,16,0.00
2013-3-15,77.0,59.8,49.0,44.0,32.2,23.0,61,38,15,0.00,40.00,10,4,25,0.00
2013-3-16,75.0,55.0,45.0,45.0,36.3,27.0,82,54,19,0.00,40.00,17,5,39,0.00
2013-3-17,71.0,52.3,40.0,33.0,26.0,19.0,55,39,14,0.00,40.00,12,5,31,0.00
2013-3-18,70.0,50.1,39.0,35.0,24.9,14.0,70,42,14,0.00,40.00,7,3,17,0.00
2013-3-19,73.0,53.1,40.0,36.0,24.6,16.0,53,36,14,0.00,40.00,7,4,20,0.00
2013-3-20,61.0,50.7,46.0,35.0,30.3,20.0,63,47,25,0.00,40.00,19,14,44,0.00
2013-3-21,73.0,48.2,40.0,40.0,32.7,26.0,83,60,21,0.00,40.00,9,4,34,0.00
2013-3-22,61.0,44.3,34.0,35.0,29.8,20.0,94,63,22,0.00,40.00,9,3,22,0.00
2013-3-23,67.0,48.9,32.0,29.0,12.3,-2.0,87,32,7,0.00,40.00,6,3,15,0.00
2013-3-24,70.0,49.8,37.0,35.0,13.7,0.0,52,29,8,0.00,40.00,4,2,13,0.00
2013-3-25,72.0,51.7,42.0,32.0,21.2,5.0,52,33,9,0.00,40.00,7,3,20,0.00
2013-3-26,68.0,50.7,40.0,36.0,24.7,10.0,60,39,16,0.00,40.00,14,5,28,0.00
2013-3-27,69.0,50.9,41.0,34.0,31.4,24.0,72,51,24,0.00,40.00,7,4,17,0.00
2013-3-28,68.0,57.4,49.0,36.0,29.6,24.0,50,35,23,0.00,40.00,10,5,25,0.00
2013-3-29,73.0,57.3,42.0,36.0,23.8,14.0,57,33,12,0.00,40.00,12,3,20,0.00
2013-3-30,74.0,58.9,49.0,37.0,27.5,-99.9,57,36,13,0.00,40.00,11,3,21,0.00
2013-3-31,64.0,49.1,42.0,43.0,36.3,30.0,89,64,32,0.00,40.00,9,4,24,0.00
2013-4-1,61.0,45.9,33.0,38.0,32.9,27.0,87,64,34,0.00,40.00,9,5,27,0.00
2013-4-2,69.0,47.6,36.0,46.0,33.6,22.0,92,64,21,0.00,40.00,5,2,14,0.00
2013-4-3,78.0,56.1,40.0,39.0,29.9,20.0,87,46,13,0.00,40.00,8,2,18,0.00
2013-4-4,66.0,55.2,47.0,45.0,32.9,26.0,66,44,29,0.00,40.00,9,5,31,0.00
2013-4-5,71.0,50.3,42.0,43.0,36.4,30.0,81,62,26,0.00,40.00,14,5,33,0.00
2013-4-6,71.0,48.5,38.0,44.0,35.0,25.0,84,63,26,0.00,40.00,9,4,24,0.00
2013-4-7,70.0,50.5,39.0,42.0,35.9,29.0,86,61,29,0.00,40.00,19,6,42,0.00
2013-4-8,46.0,38.3,31.0,38.0,31.5,26.0,98,77,57,0.00,40.00,18,9,44,0.06
2013-4-9,62.0,42.8,30.0,29.0,16.8,1.0,92,41,10,0.00,40.00,7,3,22,0.01
2013-4-10,77.0,55.5,43.0,33.0,13.0,4.0,38,20,9,0.00,40.00,9,3,22,0.00
2013-4-11,76.0,55.3,44.0,47.0,27.9,14.0,65,38,11,0.00,40.00,6,3,14,0.00
2013-4-12,78.0,57.9,45.0,40.0,32.1,21.0,80,46,13,0.00,40.00,8,4,22,0.00
2013-4-13,74.0,58.6,45.0,38.0,31.7,23.0,70,40,17,0.00,40.00,16,8,36,0.00
2013-4-14,69.0,55.2,47.0,36.0,33.0,25.0,59,44,25,0.00,40.00,26,11,51,0.00
2013-4-15,57.0,46.7,39.0,31.0,27.1,24.0,62,47,34,0.00,40.00,24,14,48,0.00
2013-4-16,56.0,38.0,27.0,30.0,21.0,14.0,82,54,26,0.00,40.00,12,6,31,0.00
2013-4-17,60.0,42.7,29.0,22.0,12.0,-2.0,61,32,13,0.00,40.00,4,2,14,0.00
2013-4-18,64.0,47.9,33.0,21.0,5.3,-4.0,53,21,8,0.00,40.00,5,2,15,0.00
2013-4-19,73.0,54.4,41.0,26.0,13.2,1.0,39,21,10,0.00,40.00,6,2,21,0.00
2013-4-20,79.0,58.7,46.0,37.0,26.7,16.0,54,34,10,0.00,40.00,6,3,15,0.00
2013-4-21,85.0,62.0,46.0,35.0,27.4,16.0,56,32,10,0.00,40.00,7,3,18,0.00
2013-4-22,85.0,61.6,50.0,34.0,30.1,23.0,52,34,12,0.00,40.00,12,4,29,0.00
2013-4-23,75.0,62.3,51.0,36.0,20.6,9.0,53,26,8,0.00,40.00,6,3,16,0.00
2013-4-24,75.0,61.3,49.0,31.0,13.4,3.0,44,19,6,0.00,40.00,8,4,22,0.00
2013-4-25,75.0,59.9,47.0,35.0,21.2,6.0,49,24,12,0.00,40.00,8,3,22,0.00
2013-4-26,82.0,61.7,45.0,38.0,27.9,6.0,69,37,6,0.00,40.00,7,2,17,0.00
2013-4-27,85.0,66.1,50.0,37.0,26.2,11.0,58,28,7,0.00,40.00,10,4,24,0.00
2013-4-28,83.0,67.8,54.0,39.0,30.8,18.0,53,29,9,0.00,40.00,10,3,23,0.00
2013-4-29,90.0,66.4,55.0,44.0,36.5,28.0,58,38,12,0.00,40.00,10,3,24,0.00
2013-4-30,85.0,67.4,55.0,45.0,36.8,26.0,58,36,15,0.00,40.00,11,6,29,0.00
2013-5-1,77.0,62.3,51.0,40.0,6.3,-20.0,59,20,2,0.00,40.00,10,4,23,0.00
2013-5-2,78.0,63.4,52.0,-4.0,-9.9,-13.0,8,5,3,0.00,40.00,8,4,18,0.00
2013-5-3,83.0,64.1,51.0,24.0,-2.8,-19.0,20,8,2,0.00,40.00,5,2,18,0.00
2013-5-4,77.0,63.4,51.0,31.0,22.1,15.0,43,22,10,0.00,40.00,9,3,25,0.00
2013-5-5,61.0,52.5,43.0,39.0,24.7,5.0,71,37,17,0.00,40.00,19,5,35,0.00
2013-5-6,51.0,45.8,37.0,45.0,37.1,30.0,87,72,58,0.00,40.00,13,4,30,0.13
2013-5-7,60.0,45.6,39.0,46.0,38.2,33.0,99,78,46,0.00,40.00,10,4,25,0.05
2013-5-8,62.0,48.0,38.0,45.0,37.8,31.0,95,71,34,0.00,40.00,5,2,12,0.00
2013-5-9,61.0,49.3,41.0,53.0,42.7,36.0,95,80,46,0.00,40.00,6,1,16,0.19
2013-5-10,77.0,62.4,45.0,46.0,38.1,22.0,93,49,13,0.00,40.00,8,3,20,0.05
2013-5-11,87.0,69.0,54.0,42.0,32.6,-99.9,59,32,11,0.00,40.00,5,2,15,0.00
2013-5-12,93.0,72.4,58.0,41.0,34.7,21.0,45,28,8,0.00,40.00,8,3,19,0.00
2013-5-13,89.0,74.1,61.0,45.0,33.4,15.0,52,27,8,0.00,40.00,7,4,25,0.00
2013-5-14,85.0,69.1,58.0,35.0,24.7,10.0,40,21,7,0.00,40.00,19,6,38,0.00
2013-5-15,84.0,65.1,51.0,43.0,35.4,29.0,70,38,14,0.00,40.00,15,6,38,0.00
2013-5-16,77.0,53.7,48.0,41.0,17.5,-99.9,67,42,19,0.00,40.00,13,6,36,0.00
2013-5-17,72.0,54.7,44.0,41.0,33.9,-99.9,78,55,29,0.00,40.00,13,7,36,0.00
2013-5-18,79.0,59.0,43.0,37.0,30.2,23.0,63,38,14,0.00,40.00,9,4,23,0.00
2013-5-19,83.0,62.3,47.0,37.0,28.7,17.0,53,32,10,0.00,40.00,4,2,13,0.00
2013-5-20,81.0,65.3,49.0,35.0,24.5,13.0,58,27,9,0.00,40.00,6,3,14,0.00
2013-5-21,79.0,65.2,55.0,29.0,21.8,12.0,35,21,9,0.00,40.00,15,7,34,0.00
2013-5-22,72.0,57.0,45.0,32.0,25.8,15.0,51,32,14,0.00,40.00,14,7,36,0.00
2013-5-23,72.0,52.9,39.0,29.0,17.9,8.0,58,29,11,0.00,40.00,8,4,24,0.00
2013-5-24,80.0,57.4,39.0,33.0,21.1,0.0,59,32,5,0.00,40.00,6,3,18,0.00
2013-5-25,80.0,58.9,44.0,32.0,26.7,16.0,60,33,11,0.00,40.00,9,4,27,0.00
2013-5-26,79.0,58.2,47.0,41.0,29.3,21.0,64,36,16,0.00,40.00,10,4,26,0.00
2013-5-27,79.0,56.8,45.0,45.0,34.5,30.0,64,46,21,0.00,40.00,16,5,32,0.00
2013-5-28,71.0,57.0,45.0,48.0,40.1,33.0,78,56,33,0.00,40.00,13,5,27,0.00
2013-5-29,72.0,58.5,46.0,48.0,41.9,36.0,84,58,30,0.00,40.00,18,6,38,0.00
2013-5-30,86.0,63.8,48.0,47.0,38.8,27.0,80,48,13,0.00,40.00,16,4,31,0.00
2013-5-31,90.0,69.4,52.0,45.0,31.9,19.0,63,32,8,0.00,40.00,7,3,16,0.00
2013-6-1,95.0,75.3,58.0,37.0,21.8,4.0,41,18,4,0.00,40.00,5,2,16,0.00
2013-6-2,92.0,75.2,62.0,39.0,27.0,17.0,34,18,8,0.00,40.00,8,3,19,0.00
2013-6-3,92.0,73.8,60.0,46.0,33.0,23.0,42,26,9,0.00,40.00,9,3,23,0.00
2013-6-4,92.0,72.9,58.0,47.0,36.7,23.0,51,32,9,0.00,40.00,6,3,20,0.00
2013-6-5,96.0,75.4,57.0,50.0,37.6,16.0,67,34,6,0.00,40.00,8,3,20,0.00
2013-6-6,98.0,77.7,60.0,48.0,36.8,14.0,59,31,5,0.00,40.00,8,3,20,0.00
2013-6-7,99.0,80.1,61.0,48.0,33.6,11.0,58,26,4,0.00,40.00,7,2,16,0.00
2013-6-8,103.0,85.8,66.0,46.0,28.3,13.0,33,16,4,0.00,40.00,8,3,22,0.00
2013-6-9,95.0,81.1,68.0,51.0,26.2,-12.0,47,20,3,0.00,40.00,17,4,25,0.00
2013-6-10,79.0,69.3,59.0,43.0,22.7,6.0,49,20,8,0.00,40.00,15,6,30,0.00
2013-6-11,94.0,72.7,56.0,40.0,31.7,19.0,50,26,8,0.00,40.00,9,4,22,0.00
2013-6-12,91.0,71.5,61.0,45.0,32.0,20.0,43,26,8,0.00,40.00,14,4,30,0.00
2013-6-13,85.0,68.7,56.0,41.0,27.2,16.0,47,25,8,0.00,40.00,13,5,30,0.00
2013-6-14,91.0,68.5,50.0,32.0,19.1,-4.0,42,21,3,0.00,40.00,8,3,22,0.00
2013-6-15,87.0,68.3,52.0,32.0,23.9,13.0,41,22,7,0.00,40.00,10,4,22,0.00
2013-6-16,90.0,68.7,55.0,34.0,27.0,22.0,37,23,9,0.00,40.00,8,3,19,0.00
2013-6-17,90.0,68.5,56.0,41.0,33.0,25.0,49,30,12,0.00,40.00,6,4,28,0.00
2013-6-18,84.0,67.1,54.0,40.0,30.7,21.0,52,29,12,0.00,40.00,11,5,35,0.00
2013-6-19,81.0,59.8,47.0,39.0,31.5,19.0,56,38,12,0.00,40.00,13,6,37,0.00
2013-6-20,73.0,56.4,47.0,38.0,28.1,17.0,63,39,12,0.00,40.00,5,3,12,0.00
2013-6-22,87.0,73.6,61.0,33.0,28.0,22.0,33,20,10,0.00,40.00,7,4,18,0.00
2013-6-23,83.0,65.9,55.0,43.0,34.8,27.0,52,34,14,0.00,40.00,10,4,32,0.00
2013-6-24,70.0,60.5,53.0,51.0,41.0,31.0,72,49,39,0.00,40.00,11,6,30,0.00
2013-6-25,86.0,66.2,51.0,53.0,46.9,38.0,88,55,23,0.00,40.00,11,5,28,0.00
2013-6-26,95.0,71.9,57.0,55.0,48.9,37.0,82,51,16,0.00,40.00,5,3,13,0.00
2013-6-27,99.0,71.4,60.0,57.0,51.8,30.0,80,55,9,0.00,40.00,4,2,14,0.00
2013-6-28,103.0,79.2,64.0,56.0,47.7,26.0,71,40,7,0.00,40.00,6,2,18,0.00
2013-6-29,104.0,81.9,66.0,53.0,44.9,31.0,58,32,8,0.00,40.00,7,3,17,0.00
2013-6-30,103.0,84.4,69.0,49.0,38.7,18.0,47,24,6,0.00,40.00,9,3,20,0.00
2013-7-1,103.0,83.3,72.0,47.0,39.2,30.0,34,23,9,0.00,40.00,9,2,20,0.01
2013-7-2,101.0,83.3,72.0,48.0,40.7,30.0,39,24,11,0.00,40.00,10,3,25,0.01
2013-7-3,97.0,79.5,70.0,50.0,41.8,32.0,36,27,11,0.00,40.00,7,2,22,0.00
2013-7-4,97.0,82.0,69.0,54.0,46.6,36.0,46,32,12,0.00,40.00,8,3,22,0.00
2013-7-5,98.0,80.9,70.0,52.0,45.5,36.0,53,32,12,0.00,40.00,11,4,26,0.00
2013-7-6,96.0,77.3,66.0,42.0,33.4,22.0,34,22,8,0.00,40.00,7,4,35,0.00
2013-7-7,95.0,78.5,66.0,35.0,27.0,17.0,29,17,7,0.00,40.00,8,4,23,0.00
2013-7-8,92.0,75.8,66.0,26.0,21.6,16.0,19,14,7,0.00,40.00,7,5,21,0.00
2013-7-9,97.0,78.5,66.0,30.0,21.3,15.0,18,12,7,0.00,40.00,8,5,29,0.00
2013-7-10,90.0,76.9,70.0,46.0,28.6,-99.9,32,18,11,0.00,40.00,8,4,19,0.00
2013-7-11,85.0,70.0,60.0,56.0,48.5,40.0,77,50,26,0.00,40.00,6,3,17,0.05
2013-7-12,92.0,73.1,61.0,43.0,32.6,21.0,50,27,9,0.00,40.00,7,3,20,0.02
2013-7-13,91.0,74.9,63.0,37.0,28.5,19.0,32,20,10,0.00,40.00,9,4,21,0.00
2013-7-14,98.0,75.4,64.0,35.0,29.7,23.0,28,20,9,0.00,40.00,7,3,22,0.00
2013-7-15,93.0,76.9,63.0,35.0,28.8,19.0,25,18,12,0.00,40.00,6,3,20,0.00
2013-7-16,93.0,80.0,64.0,31.0,26.2,22.0,26,15,8,0.00,40.00,7,4,18,0.00
2013-7-17,95.0,72.3,59.0,38.0,27.5,6.0,38,23,4,0.00,40.00,5,3,16,0.00
2013-7-18,98.0,79.9,59.0,42.0,30.2,14.0,45,21,5,0.00,40.00,6,2,15,0.00
2013-7-19,103.0,83.0,63.0,40.0,30.9,20.0,42,19,6,0.00,40.00,5,2,13,0.00
2013-7-20,100.0,78.3,66.0,41.0,31.6,-99.9,30,20,9,0.00,40.00,5,2,18,0.00
2013-7-21,92.0,79.3,71.0,52.0,43.1,34.0,45,28,18,0.00,40.00,6,2,16,0.00
2013-7-22,89.0,71.9,61.0,66.0,55.5,47.0,98,62,27,0.00,40.00,4,2,15,0.46
2013-7-23,88.0,70.2,61.0,59.0,54.1,50.0,81,59,28,0.00,40.00,7,2,19,0.49
2013-7-24,91.0,76.1,61.0,55.0,48.9,41.0,73,43,18,0.00,40.00,8,3,17,0.01
2013-7-25,97.0,77.9,64.0,49.0,44.2,38.0,54,34,15,0.00,40.00,8,3,22,0.00
2013-7-26,77.0,69.6,63.0,63.0,53.5,43.0,85,58,38,0.00,40.00,4,2,11,0.03
2013-7-27,84.0,70.7,62.0,58.0,54.1,48.0,80,58,37,0.00,40.00,6,2,14,0.15
2013-7-28,90.0,72.3,64.0,59.0,47.6,41.0,68,43,26,0.00,40.00,7,3,18,0.45
2013-7-29,90.0,73.8,63.0,46.0,39.3,26.0,46,31,11,0.00,40.00,7,3,22,0.12
2013-7-30,90.0,75.2,62.0,46.0,38.3,32.0,46,29,14,0.00,40.00,7,3,20,0.00
2013-7-31,91.0,75.0,60.0,44.0,32.6,9.0,49,27,5,0.00,40.00,10,3,22,0.00
2013-8-1,90.0,72.5,60.0,41.0,33.4,26.0,43,26,12,0.00,40.00,7,4,27,0.00
2013-8-2,88.0,69.2,55.0,38.0,28.1,22.0,43,24,10,0.00,40.00,7,3,16,0.00
2013-8-3,92.0,72.7,56.0,28.0,23.2,16.0,33,18,6,0.00,40.00,5,3,14,0.00
2013-8-4,92.0,74.7,59.0,31.0,22.0,15.0,27,16,6,0.00,40.00,6,2,21,0.00
2013-8-5,95.0,74.1,59.0,28.0,22.7,18.0,29,16,7,0.00,40.00,7,3,18,0.00
2013-8-6,95.0,74.0,58.0,37.0,28.1,18.0,42,21,7,0.00,40.00,7,3,23,0.00
2013-8-7,84.0,68.9,57.0,40.0,33.5,23.0,51,30,12,0.00,40.00,10,4,28,0.00
2013-8-8,85.0,68.0,53.0,40.0,31.2,13.0,58,30,9,0.00,40.00,9,4,18,0.00
2013-8-9,86.0,67.4,51.0,42.0,33.4,23.0,64,33,11,0.00,40.00,7,3,20,0.00
2013-8-10,87.0,70.0,55.0,42.0,35.1,29.0,56,30,16,0.00,40.00,5,3,15,0.00
2013-8-11,89.0,72.5,55.0,46.0,33.1,16.0,60,28,7,0.00,40.00,6,3,16,0.00
2013-8-12,91.0,73.7,55.0,43.0,32.5,22.0,58,27,9,0.00,40.00,7,3,22,0.00
2013-8-13,94.0,75.9,60.0,42.0,27.4,-99.9,49,23,6,0.00,40.00,6,2,15,0.00
2013-8-14,94.0,79.0,60.0,37.0,24.1,10.0,38,16,5,0.00,40.00,7,3,16,0.00
2013-8-15,95.0,71.7,61.0,34.0,18.0,-99.9,28,16,7,0.00,40.00,9,3,26,0.00
2013-8-16,97.0,77.4,62.0,47.0,32.0,-99.9,35,21,12,0.00,40.00,6,2,20,0.00
2013-8-17,98.0,77.1,63.0,43.0,36.3,-99.9,44,26,12,0.00,40.00,6,3,18,0.00
2013-8-18,95.0,78.4,64.0,53.0,37.3,18.0,40,25,10,0.00,40.00,8,3,21,0.01
2013-8-19,92.0,70.9,66.0,61.0,35.8,-99.9,65,37,21,0.00,40.00,9,3,20,0.02
2013-8-20,95.0,77.6,65.0,50.0,37.6,-99.9,51,29,10,0.00,40.00,11,3,26,0.02
2013-8-21,93.0,79.4,71.0,43.0,35.4,28.0,30,22,12,0.00,40.00,13,4,26,0.00
2013-8-22,94.0,80.2,66.0,40.0,33.6,25.0,35,21,10,0.00,40.00,9,4,25,0.00
2013-8-23,93.0,74.9,61.0,38.0,30.2,15.0,40,22,6,0.00,40.00,8,3,24,0.00
2013-8-24,90.0,71.3,57.0,41.0,28.2,-99.9,51,25,6,0.00,40.00,5,3,24,0.00
2013-8-25,87.0,71.8,60.0,40.0,29.6,15.0,40,24,9,0.00,40.00,10,4,24,0.00
2013-8-26,87.0,71.3,59.0,57.0,45.6,33.0,69,42,21,0.00,40.00,5,3,16,0.00
2013-8-27,77.0,67.7,61.0,56.0,52.5,46.0,73,59,40,0.00,40.00,4,2,11,0.00
2013-8-28,87.0,80.0,69.0,51.0,47.3,38.0,44,33,21,0.00,40.00,10,5,24,0.00
2013-8-29,91.0,76.2,63.0,50.0,43.1,36.0,49,33,18,0.00,40.00,6,2,14,0.00
2013-8-30,93.0,76.3,64.0,66.0,51.1,42.0,77,45,22,0.00,40.00,5,2,13,0.11
2013-8-31,91.0,73.1,63.0,55.0,46.5,-99.9,61,42,23,0.00,40.00,7,2,17,0.11
2013-9-1,90.0,73.4,62.0,55.0,45.0,37.0,63,39,19,0.00,40.00,6,2,16,0.00
2013-9-2,90.0,74.2,64.0,55.0,48.7,37.0,68,45,20,0.00,40.00,8,3,21,0.00
2013-9-3,91.0,74.8,63.0,54.0,48.4,39.0,65,43,20,0.00,40.00,8,3,24,0.00
2013-9-4,94.0,75.2,63.0,51.0,44.4,37.0,57,37,15,0.00,40.00,7,2,22,0.00
2013-9-5,93.0,76.8,63.0,49.0,43.1,33.0,58,33,16,0.00,40.00,6,2,13,0.00
2013-9-6,94.0,75.1,62.0,48.0,39.4,28.0,53,31,12,0.00,40.00,4,2,18,0.00
2013-9-7,94.0,75.3,63.0,40.0,29.9,-99.9,41,22,7,0.00,40.00,9,4,21,0.00
2013-9-8,89.0,74.9,65.0,49.0,36.3,21.0,53,27,13,0.00,40.00,6,3,14,0.00
2013-9-9,91.0,72.1,63.0,46.0,40.0,31.0,50,34,15,0.00,40.00,6,2,18,0.00
2013-9-10,87.0,70.1,60.0,40.0,36.6,30.0,42,31,17,0.00,40.00,4,2,13,0.23
2013-9-11,85.0,68.1,59.0,44.0,39.8,34.0,50,37,20,0.00,40.00,4,2,12,0.23
2013-9-12,89.0,69.3,57.0,51.0,39.9,33.0,57,37,16,0.00,40.00,6,2,16,0.00
2013-9-13,90.0,70.5,58.0,52.0,43.8,34.0,67,43,16,0.00,40.00,6,2,15,0.00
2013-9-14,91.0,72.7,60.0,49.0,40.9,-99.9,61,37,13,0.00,40.00,7,2,16,0.00
2013-9-15,91.0,77.7,63.0,50.0,36.1,25.0,62,27,10,0.00,40.00,9,3,23,0.00
2013-9-16,88.0,75.2,61.0,40.0,31.2,22.0,39,22,10,0.00,40.00,9,4,26,0.00
2013-9-17,84.0,66.6,57.0,46.0,33.6,15.0,62,34,8,0.00,40.00,8,5,30,0.00
2013-9-18,66.0,56.3,51.0,45.0,40.6,37.0,70,57,41,0.00,40.00,3,1,15,0.00
2013-9-19,87.0,70.8,57.0,35.0,16.8,5.0,43,15,7,0.00,40.00,6,3,14,0.00
2013-9-20,85.0,70.5,61.0,41.0,23.3,14.0,42,19,9,0.00,40.00,9,3,22,0.00
2013-9-21,74.0,58.4,47.0,43.0,36.0,-99.9,73,47,21,0.00,40.00,13,5,37,0.00
2013-9-22,68.0,50.5,39.0,42.0,33.9,27.0,78,57,27,0.00,40.00,15,5,36,0.00
2013-9-23,84.0,63.9,44.0,39.0,26.0,16.0,83,30,11,0.00,40.00,7,2,11,0.00
2013-9-24,84.0,64.6,53.0,34.0,24.8,13.0,44,25,9,0.00,40.00,9,4,25,0.00
2013-9-25,60.0,54.2,42.0,44.0,35.7,26.0,73,52,30,0.00,40.00,19,12,46,0.00
2013-9-26,64.0,46.7,38.0,33.0,27.6,20.0,71,50,23,0.00,40.00,10,4,25,0.00
2013-9-27,70.0,51.5,38.0,32.0,20.9,11.0,76,37,12,0.00,40.00,5,2,12,0.00
2013-9-28,77.0,60.4,47.0,21.0,13.5,-99.9,32,18,8,0.00,40.00,4,2,14,0.00
2013-9-29,82.0,62.6,49.0,29.0,20.5,11.0,29,21,9,0.00,40.00,11,5,29,0.00
2013-9-30,83.0,63.0,53.0,37.0,28.0,22.0,42,28,14,0.00,40.00,7,3,21,0.00
2013-10-1,73.0,64.8,55.0,46.0,42.1,39.0,68,46,30,0.00,40.00,6,4,19,0.00
2013-10-2,75.0,58.1,48.0,46.0,40.5,31.0,88,57,20,0.00,40.00,11,4,26,0.00
2013-10-3,66.0,54.9,45.0,41.0,25.7,22.0,70,34,21,0.00,40.00,5,2,18,0.00
2013-10-4,65.0,53.5,45.0,22.0,4.2,-4.0,39,15,7,0.00,40.00,13,6,29,0.00
2013-10-5,71.0,56.5,46.0,12.0,5.0,-1.0,18,13,7,0.00,40.00,7,3,23,0.00
2013-10-6,79.0,61.2,52.0,7.0,-2.4,-11.0,12,8,4,0.00,40.00,5,3,13,0.00
2013-10-7,77.0,62.9,53.0,12.0,1.7,-8.0,14,9,5,0.00,40.00,8,3,16,0.00
2013-10-8,75.0,58.5,49.0,20.0,15.3,8.0,27,19,10,0.00,40.00,6,3,17,0.00
2013-10-9,54.0,45.7,35.0,36.0,29.5,20.0,85,54,28,0.00,40.00,10,4,22,0.00
2013-10-10,61.0,45.5,32.0,38.0,31.1,24.0,96,61,34,0.00,40.00,5,2,13,0.00
2013-10-11,70.0,53.3,39.0,35.0,29.4,21.0,77,46,17,0.00,40.00,11,3,21,0.00
2013-10-12,72.0,52.0,41.0,34.0,20.6,-99.9,67,36,9,0.00,40.00,6,3,21,0.00
2013-10-13,66.0,50.4,43.0,36.0,31.1,24.0,71,51,26,0.00,40.00,9,4,24,0.00
2013-10-14,70.0,52.8,42.0,27.0,22.0,16.0,56,32,15,0.00,40.00,5,2,13,0.00
2013-10-15,69.0,54.0,45.0,24.0,18.0,14.0,37,25,13,0.00,40.00,9,2,16,0.00
2013-10-16,71.0,55.0,44.0,16.0,12.8,4.0,29,20,11,0.00,40.00,5,3,13,0.00
2013-10-17,70.0,54.6,45.0,27.0,16.5,7.0,39,23,12,0.00,40.00,5,2,11,0.00
2013-10-18,78.0,60.4,48.0,26.0,11.2,4.0,41,16,7,0.00,40.00,4,2,11,0.00
2013-10-19,79.0,61.2,50.0,17.0,7.9,-99.9,19,13,6,0.00,40.00,6,2,12,0.00
2013-10-20,79.0,61.1,48.0,21.0,10.6,3.0,26,15,6,0.00,40.00,4,2,11,0.00
2013-10-21,77.0,64.0,52.0,21.0,9.7,4.0,27,13,7,0.00,40.00,6,2,13,0.00
2013-10-22,78.0,63.8,55.0,20.0,12.9,5.0,18,14,9,0.00,40.00,5,2,14,0.00
2013-10-23,79.0,62.2,54.0,19.0,14.3,6.0,21,16,9,0.00,40.00,5,2,13,0.00
2013-10-24,78.0,59.9,50.0,25.0,15.8,7.0,31,19,8,0.00,40.00,5,2,17,0.00
2013-10-25,80.0,61.0,48.0,28.0,19.2,11.0,43,23,8,0.00,40.00,4,2,14,0.00
2013-10-26,79.0,62.9,54.0,22.0,10.0,-99.9,27,16,8,0.00,40.00,4,-36,11,0.00
2013-10-27,72.0,59.9,48.0,32.0,18.6,12.0,54,22,10,0.00,40.00,11,4,40,0.00
2013-10-28,48.0,37.3,32.0,34.0,29.3,-99.9,99,78,53,0.00,40.00,21,12,49,0.11
2013-10-29,49.0,37.4,32.0,36.0,33.1,30.0,100,86,61,0.00,40.00,10,4,29,0.15
2013-10-30,53.0,40.7,32.0,33.0,30.6,27.0,97,71,39,0.00,40.00,4,1,9,0.01
2013-10-31,68.0,52.5,39.0,32.0,18.1,11.0,75,30,12,0.00,40.00,5,2,11,0.01
2013-11-1,71.0,55.8,46.0,21.0,19.0,15.0,33,24,13,0.00,40.00,5,2,13,0.00
2013-11-2,70.0,56.8,46.0,21.0,16.3,-99.9,31,21,13,0.00,40.00,9,3,18,0.00
2013-11-3,64.0,48.6,41.0,33.0,27.1,17.0,72,45,27,0.00,40.00,7,3,19,0.00
2013-11-4,52.0,41.1,34.0,36.0,30.5,25.0,95,68,39,0.00,40.00,5,2,10,0.00
2013-11-5,60.0,44.9,35.0,26.0,8.3,0.0,68,26,9,0.00,40.00,5,2,14,0.00
2013-11-6,66.0,51.6,41.0,15.0,6.7,2.0,25,16,11,0.00,40.00,5,3,16,0.00
2013-11-7,69.0,57.4,49.0,19.0,16.2,12.0,28,21,12,0.00,40.00,4,3,14,0.00
2013-11-8,71.0,56.5,46.0,19.0,14.9,8.0,31,21,10,0.00,40.00,4,2,11,0.00
2013-11-9,68.0,54.6,49.0,15.0,7.8,-99.9,25,16,8,0.00,40.00,6,2,15,0.00
2013-11-10,71.0,59.5,49.0,10.0,7.9,2.0,18,13,9,0.00,40.00,5,2,12,0.00
2013-11-11,75.0,60.4,49.0,14.0,6.5,0.0,18,12,6,0.00,40.00,5,2,13,0.00
2013-11-12,73.0,62.0,56.0,13.0,8.8,5.0,16,12,10,0.00,40.00,3,1,9,0.00
2013-11-13,76.0,60.8,50.0,27.0,19.0,11.0,37,21,11,0.00,40.00,3,1,9,0.00
2013-11-14,74.0,59.7,49.0,24.0,20.6,15.0,32,23,11,0.00,40.00,11,3,28,0.00
2013-11-15,57.0,47.3,37.0,35.0,30.9,24.0,93,56,33,0.00,40.00,14,5,36,0.00
2013-11-16,57.0,42.2,34.0,37.0,29.7,-99.9,100,68,33,0.00,40.00,7,3,28,0.00
2013-11-17,60.0,45.2,36.0,30.0,28.7,27.0,76,55,32,0.00,40.00,5,2,15,0.00
2013-11-18,62.0,48.6,41.0,34.0,32.5,31.0,69,56,34,0.00,40.00,6,2,18,0.00
2013-11-19,56.0,43.1,35.0,36.0,33.5,31.0,90,70,44,0.00,40.00,7,2,18,0.00
2013-11-20,60.0,45.6,37.0,39.0,36.9,33.0,95,74,44,0.00,40.00,7,3,22,0.00
2013-11-21,49.0,41.1,34.0,42.0,36.8,29.0,96,85,68,0.00,40.00,9,3,28,0.20
2013-11-22,37.0,33.7,32.0,33.0,30.0,26.0,94,87,70,0.00,40.00,11,4,23,0.28
2013-11-23,45.0,37.0,34.0,32.0,28.2,-99.9,92,73,53,0.00,40.00,9,4,24,0.03
2013-11-24,55.0,40.9,34.0,32.0,26.8,19.0,79,58,39,0.00,40.00,4,2,9,0.01
2013-11-25,57.0,43.7,33.0,31.0,26.1,14.0,90,55,25,0.00,40.00,3,1,11,0.00
2013-11-26,59.0,49.9,43.0,22.0,19.5,14.0,40,30,23,0.00,40.00,4,2,13,0.00
2013-11-27,57.0,45.4,38.0,31.0,26.4,22.0,72,48,31,0.00,40.00,5,3,15,0.00
2013-11-28,51.0,42.8,39.0,30.0,26.2,23.0,70,53,33,0.00,40.00,4,2,13,0.00
2013-11-29,57.0,44.0,38.0,28.0,25.4,22.0,61,49,29,0.00,40.00,4,2,11,0.00
2013-11-30,61.0,46.6,41.0,24.0,20.9,-99.9,50,38,22,0.00,40.00,3,1,7,0.00
2013-12-1,68.0,48.1,41.0,23.0,17.5,14.0,48,31,15,0.00,40.00,2,1,8,0.00
2013-12-2,64.0,52.9,44.0,16.0,10.9,7.0,27,19,13,0.00,40.00,14,5,28,0.00
2013-12-3,48.0,41.8,32.0,38.0,29.0,14.0,98,65,25,0.00,40.00,20,13,42,0.00
2013-12-4,41.0,29.1,20.0,22.0,12.4,3.0,82,53,23,0.00,40.00,13,4,36,0.00
2013-12-5,40.0,26.5,19.0,13.0,9.1,1.0,69,49,24,0.00,40.00,4,2,10,0.00
2013-12-6,40.0,26.7,18.0,10.0,-1.5,-18.0,69,35,12,0.00,40.00,11,4,26,0.00
2013-12-7,30.0,25.3,20.0,30.0,14.5,-99.9,99,69,21,0.00,40.00,23,11,51,0.00
2013-12-8,37.0,22.0,15.0,13.0,9.3,7.0,77,59,33,0.00,40.00,4,2,21,0.11
2013-12-9,39.0,27.5,20.0,8.0,-2.3,-8.0,58,29,16,0.00,40.00,8,4,19,0.04
2013-12-10,54.0,37.7,27.0,5.0,-2.1,-12.0,22,18,11,0.00,40.00,6,2,13,0.04
2013-12-11,56.0,44.1,36.0,12.0,6.3,0.0,29,21,16,0.00,40.00,5,2,12,0.00
2013-12-12,57.0,44.8,38.0,14.0,7.5,1.0,31,22,15,0.00,40.00,5,2,11,0.00
2013-12-13,53.0,41.9,33.0,15.0,9.0,5.0,38,26,17,0.00,40.00,7,3,14,0.00
2013-12-14,58.0,46.9,40.0,16.0,7.5,-99.9,35,22,12,0.00,40.00,5,3,17,0.00
2013-12-15,68.0,56.3,49.0,14.0,7.4,0.0,17,14,11,0.00,40.00,5,2,10,0.00
2013-12-16,71.0,58.3,51.0,16.0,12.5,8.0,21,16,12,0.00,40.00,4,2,12,0.00
2013-12-17,71.0,57.8,52.0,16.0,11.5,8.0,18,16,12,0.00,40.00,3,1,8,0.00
2013-12-18,60.0,52.9,43.0,20.0,16.3,11.0,36,24,17,0.00,40.00,10,3,21,0.00
2013-12-19,43.0,35.8,31.0,31.0,25.9,14.0,99,70,32,0.00,40.00,14,4,29,0.00
2013-12-20,44.0,33.6,28.0,30.0,26.4,21.0,100,77,46,0.00,40.00,5,1,12,0.01
2013-12-21,50.0,37.9,31.0,27.0,22.1,-99.9,79,57,31,0.00,40.00,4,1,8,0.01
2013-12-22,56.0,45.2,38.0,26.0,23.1,19.0,56,43,26,0.00,40.00,4,2,11,0.00
2013-12-23,59.0,48.4,41.0,29.0,26.3,24.0,55,43,30,0.00,40.00,3,2,11,0.00
2013-12-24,71.0,52.4,42.0,26.0,18.8,12.0,49,29,13,0.00,40.00,4,2,11,0.00
2013-12-25,64.0,52.0,46.0,14.0,0.7,-13.0,25,13,7,0.00,40.00,5,2,14,0.00
2013-12-26,65.0,54.5,48.0,-4.0,-10.1,-14.0,7,6,6,0.00,40.00,6,2,17,0.00
2013-12-27,71.0,55.2,47.0,4.0,-4.2,-14.0,12,9,6,0.00,40.00,5,1,9,0.00
2013-12-28,61.0,50.8,46.0,3.0,-1.0,-99.9,16,12,9,0.00,40.00,5,2,12,0.00
2013-12-29,58.0,48.6,41.0,3.0,-4.9,-9.0,17,11,7,0.00,40.00,5,3,14,0.00
2013-12-30,61.0,49.0,42.0,6.0,-0.9,-8.0,19,13,9,0.00,40.00,3,1,14,0.00
2013-12-31,56.0,48.3,43.0,11.0,5.6,2.0,22,17,13,0.00,40.00,5,2,12,0.00
2014-1-1,66.0,52.1,44.0,18.0,12.7,8.0,31,21,13,0.00,40.00,5,2,13,0.00
2014-1-2,64.0,50.9,45.0,22.0,19.6,16.0,39,29,19,0.00,40.00,5,2,11,0.00